Dewpoint
18 13 12 13 16 17 16 12 26 42 49 50 49 49 55 57 58 55 48 49 52 52 53 54 55 56 57 58 57 55 55 59 57 54 55 51 52 53 52 54 56 56 55 57
17 12 14 17 19 14 13 15 31 41 47 49 44 51 52 54 54 54 47 48 50 52 53 55 56 56 56 57 57 57 57 58 57 56 56 55 54 54 54 54 54 53 53 54
17 20 18 16 15 17 15 20 29 29 38 45 46 46 50 50 53 55 56 51 57 56 54 54 55 53 54 55 54 56 55 55 55 54 54 54 53 53 53 52 51 50 50 50
20 20 17 19 15 17 16 23 21 15 18 20 39 39 43 50 50 53 57 57 58 58 57 52 47 46 52 53 53 54 53 53 55 55 55 54 53 52 51 50 50 49 49 49
18 15 20 17 23 17 23 23 22 25 20 24 41 45 47 52 49 49 54 57 58 58 50 46 44 44 46 51 52 52 52 53 55 55 54 52 51 52 51 49 48 46 46 47
20 16 17 23 18 17 18 20 22 25 22 26 39 42 47 48 49 50 53 58 56 50 46 45 44 43 47 50 51 52 52 54 54 53 53 52 51 50 49 48 47 47 46 45
18 17 18 19 20 20 20 26 22 24 26 29 42 40 44 50 51 54 53 52 46 40 41 42 44 48 49 48 48 50 51 51 53 52 52 50 48 48 49 48 46 46 46 45
21 19 15 17 17 23 23 23 26 21 17 35 41 41 49 54 55 54 51 44 41 40 43 44 46 46 48 49 50 49 50 49 48 51 50 50 48 47 48 49 46 46 47 46
32 24 18 17 21 20 22 27 29 28 30 35 40 44 49 54 48 44 41 41 40 41 43 44 44 46 49 50 50 48 48 46 50 50 49 49 48 46 47 49 46 48 46 45
33 30 22 21 21 19 21 28 25 30 23 33 40 39 41 44 42 39 38 37 36 40 43 43 44 45 46 49 49 47 44 46 50 49 48 47 47 47 48 48 44 46 45 43
26 35 28 23 26 26 25 27 33 30 32 28 36 38 42 41 40 38 36 35 41 42 43 43 43 45 48 49 47 44 45 48 49 49 48 48 47 48 48 44 44 44 44 43
35 35 31 29 26 26 27 31 33 31 28 30 36 39 41 41 39 36 35 37 41 43 43 43 46 47 49 48 45 43 47 48 49 48 47 47 48 46 46 45 43 43 43 44
39 39 27 29 33 32 27 26 30 32 34 36 37 39 40 38 37 36 36 36 43 44 44 44 47 48 48 47 43 44 46 48 48 47 46 44 45 45 45 45 45 43 44 44
48 36 34 31 35 33 28 26 34 34 32 37 38 36 38 38 35 38 39 39 42 42 43 44 45 48 48 45 43 45 47 47 45 45 44 45 45 45 45 45 45 45 45 44
42 32 29 27 27 26 25 26 29 30 31 37 36 35 37 35 36 40 41 41 40 41 43 45 47 49 48 44 44 47 46 46 44 43 44 44 45 46 46 46 46 46 46 46
41 35 32 25 22 25 26 28 30 28 33 35 34 34 35 36 41 41 41 40 40 43 43 44 50 49 45 44 46 46 45 46 43 43 43 45 46 46 45 46 45 46 46 47
37 37 34 27 26 27 31 30 31 31 33 34 32 32 35 41 40 41 41 40 42 43 43 47 50 47 44 46 47 44 44 44 43 43 44 45 45 45 46 46 46 45 45 45
38 38 38 32 29 27 34 30 33 34 35 34 33 32 42 41 41 40 41 42 43 42 48 49 49 45 46 47 45 44 43 43 43 42 44 46 46 46 47 46 46 46 44 44
38 41 40 31 32 36 32 34 34 37 38 37 34 33 42 42 41 40 42 43 43 48 48 49 46 46 47 46 45 44 43 43 43 43 44 45 46 46 46 46 46 45 45 44
40 43 42 35 33 35 36 32 35 42 39 37 36 37 37 42 39 40 42 43 46 47 48 48 47 48 46 47 45 44 44 44 43 43 43 44 46 46 46 45 45 45 44 44
35 37 37 36 38 37 36 34 40 37 39 40 39 41 44 43 43 43 43 43 44 48 48 47 46 46 47 47 45 44 44 43 44 43 44 44 45 46 46 45 45 44 44 44
37 34 36 40 37 35 47 45 41 44 43 41 41 44 43 43 43 43 44 43 43 44 44 46 46 46 47 48 45 45 44 45 44 43 43 43 46 47 47 45 45 45 44 43
42 46 45 47 45 48 48 46 48 42 40 43 43 43 42 41 42 43 43 45 44 44 45 45 45 46 48 48 47 46 46 45 44 43 43 43 45 46 46 45 44 44 44 43
46 50 44 43 44 44 44 43 41 42 43 44 44 43 43 42 42 43 43 45 44 43 44 45 44 46 48 49 48 46 46 46 44 42 42 43 44 44 45 44 45 43 43 43
41 44 45 44 44 43 42 40 40 43 43 43 43 42 42 42 43 44 47 46 45 44 44 45 46 47 50 50 48 47 47 46 44 44 42 43 43 42 44 44 43 44 42 42
43 46 43 42 44 44 42 39 41 42 42 43 43 42 43 44 44 44 46 48 46 45 45 47 48 48 48 50 48 48 46 45 44 43 43 42 43 44 44 46 44 43 43 42
Lifted_Index
5 3 2 2 2 1 0 -0 -0 -0 -1 -1 -1 -0 -0 -1 -1 -0 0 0 0 1 1 1 1 1 2 2 2 2 3 2 2 3 3 3 4 4 4 4 5 5 6 6
4 3 2 2 1 0 0 -0 -1 -0 -1 -1 -0 -1 -1 -1 -1 -0 0 0 0 0 0 0 0 1 1 2 2 3 3 3 3 4 4 4 5 5 5 5 6 6 7 7
4 3 2 1 1 0 0 -0 -0 -0 -0 -0 -1 -1 -1 -1 -0 -0 -1 -0 -0 -0 -0 -0 0 1 2 2 3 3 3 4 4 5 5 5 6 6 6 6 7 7 8 8
2 2 1 1 1 0 0 0 0 0 0 -0 -1 -1 -1 -0 0 -0 -1 -1 -1 -1 -1 -0 1 2 3 3 3 3 4 4 5 5 6 6 7 7 7 7 7 7 8 8
1 1 1 1 1 1 1 1 1 1 0 -0 -1 -2 -2 -1 -0 -0 -1 -1 -1 -1 -0 1 2 3 3 3 4 4 4 5 5 6 7 7 7 7 8 8 7 8 8 8
0 0 1 2 2 1 1 1 1 1 0 -1 -1 -2 -2 -1 -1 -1 -1 -1 -1 0 1 2 3 3 4 4 5 5 5 6 6 7 7 7 7 7 8 8 8 8 8 8
-0 0 1 2 2 2 1 1 1 0 -0 -1 -1 -2 -2 -2 -1 -1 -1 -0 1 2 2 3 4 4 5 5 5 6 6 7 7 7 7 7 7 7 7 8 8 8 8 8
-0 -0 1 1 2 2 1 1 1 0 -0 -1 -1 -1 -1 -1 -1 -1 0 1 2 3 3 4 4 5 5 6 6 6 7 7 7 7 7 7 8 8 8 8 8 8 9 9
-1 -0 0 1 1 2 1 1 1 1 -0 -1 -1 -1 -1 -1 -0 1 2 2 3 4 4 5 5 5 6 6 6 7 8 8 7 7 7 8 8 8 8 8 9 9 9 9
-0 -0 -0 0 1 1 1 1 1 1 0 -1 -1 -1 -1 -0 0 1 2 3 4 4 5 5 5 5 6 6 6 7 8 8 7 6 7 8 9 9 9 9 9 9 10 10
0 0 -0 0 1 1 2 2 2 1 1 -0 -1 -1 -0 0 1 2 2 3 4 5 5 5 5 5 6 6 7 8 8 8 7 7 8 9 9 9 9 9 10 10 10 10
1 0 0 0 1 1 2 2 2 2 1 0 -0 -0 1 1 2 2 3 4 4 5 5 5 5 6 6 7 8 8 9 8 8 8 9 9 9 9 9 10 10 10 10 10
1 1 0 0 0 1 2 3 3 2 2 1 0 1 1 2 2 3 4 4 5 5 5 6 6 6 6 7 8 9 9 9 9 9 10 9 9 9 9 9 10 10 10 10
1 1 1 1 1 1 2 3 3 3 2 1 1 1 1 2 3 4 4 5 5 5 6 6 6 6 7 8 9 10 10 10 10 10 10 10 9 9 9 9 9 9 9 9
2 2 2 2 1 2 3 3 3 3 2 2 2 2 2 3 3 4 5 5 5 6 7 7 6 7 7 8 9 10 11 11 11 10 10 10 9 9 9 9 9 9 9 9
2 2 2 2 3 3 3 3 3 3 3 3 2 3 4 4 4 5 5 5 6 6 7 7 6 7 8 9 10 10 11 11 11 11 10 9 9 9 9 9 9 8 8 8
2 2 2 2 3 3 3 3 3 3 3 3 3 4 5 5 5 5 5 5 6 7 7 6 7 7 8 9 10 11 12 12 11 11 10 9 9 9 9 9 8 8 8 8
2 2 2 2 3 3 2 3 3 4 4 4 4 4 5 6 6 6 6 6 7 7 7 7 7 8 9 9 10 11 12 12 12 11 10 9 9 9 9 8 9 9 9 9
2 1 1 1 2 2 2 2 3 4 4 4 4 4 5 6 6 6 6 7 7 7 7 7 8 8 9 9 10 11 12 12 12 11 10 10 9 9 9 9 9 9 9 9
2 2 1 1 1 1 2 2 3 3 3 3 3 4 6 6 6 6 7 8 8 7 7 7 8 8 9 9 10 11 12 12 12 11 11 10 9 9 9 9 9 9 9 9
2 2 2 1 1 2 2 2 2 3 3 3 4 5 6 7 7 8 8 8 7 7 7 7 8 8 9 9 9 11 11 12 12 12 11 10 9 8 8 9 9 9 9 9
2 2 1 1 1 2 2 2 2 3 3 4 5 6 7 8 8 9 8 8 7 7 7 8 8 8 8 9 9 10 11 12 12 12 11 10 9 8 8 8 9 9 9 9
0 0 1 1 1 2 2 3 3 4 5 6 7 7 8 9 9 9 8 7 7 7 8 8 8 8 8 8 9 9 10 11 11 11 11 10 9 9 8 8 8 8 9 9
-0 0 1 1 2 3 4 5 5 6 7 7 7 8 8 9 9 8 8 7 7 7 8 8 8 8 7 7 8 9 10 10 11 11 11 10 10 9 8 7 7 8 8 8
1 1 2 2 3 4 5 6 7 7 7 7 8 8 9 9 8 8 8 8 8 8 8 8 8 7 7 7 7 8 9 10 10 10 11 10 10 9 8 7 7 7 8 8
1 1 2 2 3 4 5 6 7 7 7 8 8 8 9 8 8 8 8 8 8 8 8 8 7 7 7 7 7 8 9 10 10 10 10 10 10 9 8 7 6 6 7 7